Location: Forst
(46.9333°N, 15.4333°E)
Time: 05:52:46
(UTC+00:00)

Cosmos 1943 - Pass Details

Date: 01 December 2020
Orbit: 832 x 851 km, 71.0° (Epoch: 18 January)

Event Time Altitude Azimuth Distance (km) Brightness Sun altitude
Rises 17:50:26 0° 217° (SW) 3,382 6.9 -26.4°
Reaches altitude 10° 17:52:54 10° 221° (SW) 2,454 6.1 -26.8°
Maximum altitude 17:58:28 60° 301° (WNW) 966 3.6 -27.8°
Enters shadow 18:00:10 42° 358° (N) 1,188 3.9 -28.1°
